Estació municipal de Susqueda - Veïnat del Coll (La Selva, )

Consulta les dades en temps real de l'estació municipal de Susqueda - Veïnat del Coll





Hora UTC 02:30
Temperatura 23.7 ºC
Humitat 51.2 %
Pressió 1024.8 hPa
Pluja 0.0 mm
Velocitat vent 5.9 km/h
Direcció vent SW
Radiació solar 0.1 W/m²

Dades diàries 2026-09-06



Hora UTC (hivern +1h; estiu +2h)
Temperatura (ºC) Humitat (%) Pressió (hPa) Velocitat vent (km/h) Precipitació (mm) Radiació solar (W/m²)
Hora UTC Aire Humitat Pressió Vel. Dir. Vel. Max Dir. Intent. màx 5 min. Rad. Sol.
00:05 24.1 49.9 1025.3 7.1 SSW 7.1 SSW 0.0 0.1
00:10 24.1 49.7 1025.3 6.4 SW 13.1 SW 0.0 0.1
00:15 24.1 49.4 1025.3 6.9 SW 14.8 WSW 0.0 0.1
00:20 24.1 49.6 1025.3 6.1 SW 14.1 SSW 0.0 0.1
00:25 24.0 49.7 1025.3 5.7 SW 14.5 SW 0.0 0.1
00:30 24.1 49.7 1025.3 6.6 SW 13.1 SW 0.0 0.1
00:35 24.1 49.5 1025.2 5.8 SW 12.4 SSW 0.0 0.1
00:40 24.1 49.4 1025.2 5.7 SW 20.5 S 0.0 0.1
00:45 24.1 49.4 1025.1 6.3 SW 13.8 WSW 0.0 0.1
00:50 24.0 49.5 1025.1 6.5 SW 12.7 WSW 0.0 0.1
00:55 24.0 49.6 1025.1 5.6 SW 12.0 SW 0.0 0.1
01:00 23.9 49.7 1025.1 7.0 SW 17.6 SSW 0.0 0.1
01:05 24.0 49.3 1025.0 7.9 SW 14.1 SSW 0.0 0.1
01:10 24.0 49.4 1025.0 8.4 SW 20.1 SSW 0.0 0.1
01:15 24.0 49.5 1025.0 6.5 SW 15.2 S 0.0 0.1
01:20 24.1 49.3 1025.0 7.1 SW 17.3 SW 0.0 0.1
01:25 24.1 48.9 1024.9 8.5 SW 19.4 SW 0.0 0.1
01:30 24.0 49.2 1024.9 7.7 SW 19.1 SW 0.0 0.1
01:35 24.0 49.2 1024.9 7.8 SW 17.6 SSW 0.0 0.1
01:40 24.0 49.6 1024.9 7.7 SW 20.5 SSW 0.0 0.1
01:45 24.1 49.7 1025.0 7.8 SW 14.8 SSW 0.0 0.1
01:50 24.1 50.1 1025.0 7.8 SW 15.5 W 0.0 0.1
01:55 24.1 49.9 1024.9 6.8 SW 15.2 W 0.0 0.1
02:00 24.0 50.1 1024.9 6.0 SW 13.1 SW 0.0 0.1
02:05 24.0 50.3 1024.9 6.1 SW 14.1 SW 0.0 0.1
02:10 24.0 50.3 1024.9 5.4 SW 14.5 W 0.0 0.1
02:15 24.0 50.4 1024.9 6.3 SW 15.2 W 0.0 0.1
02:20 23.9 50.8 1024.9 5.3 SW 14.8 SSW 0.0 0.1
02:25 23.7 51.4 1024.8 5.2 SW 11.3 WSW 0.0 0.1
02:30 23.7 51.2 1024.8 5.9 SW 16.9 W 0.0 0.1
Màxima 24.1 51.4 1025.3 8.5 SW 20.5 SSW 0.0 0.1
Mínima 20 48.9 1024.8
Total 0.0